OBJECT DD, 66765

Orbit data source: Space-Track

You're viewing an Uncataloged Satellite

Recently launched and/or uncataloged satellites may have evolving metadata. Metadata may include but not limited to: Owner, Maufacturer, Bus, Motor, and Mission.

OBJECT DD, 66765 is a satellite in SSO that was launched on Fri, 28 Nov 2025 UTC via an FALCON 9 launch vehicle from the Air Force Western Test Range (AFWTR). Unknown objects in Earth's orbit typically refer to objects detected orbiting the Earth but have not yet been identified or cataloged. These objects could be anything from previously untracked satellites, spent rocket stages, debris from satellite collisions, or even natural meteoroids temporarily captured by Earth's gravity.

Loading next visibility...
Identifier
66765, 2025-276DD
Orbit
SSO
Country
Flag of TBDTBD
Related business
None
Manufacturer
Unknown
Mission
Operational Commercial Sigint
Bus & Motor
Unknown
Mass
Unknown
Launch date (UTC)
2025-11-28 (6 months ago)
Launch vehicle
FALCON 9
Launch site
Air Force Western Test Range (AFWTR)
Object type
Unknown
Shape & HBR
Box + 2 Pan, 0.1 m
Radar Cross Section
0.080 m²

Expand to show TLE details & history
Last TLE update: 1 day ago

TLE from 1 day ago
0 OBJECT DD
1 66765U 25276DD  26144.15699492  .00007932  00000-0  33971-3 0  9991
2 66765  97.4216 218.7679 0001527 102.4331 257.7077 15.23048718 26811
Epoch: 2026-05-24T03:46Z
TLE epoch observation values (Epoch: 2026-05-24T03:46:04.361Z)
Latitude
0.00003°
Longitude
-79.51345°
Altitude
499.969 km
Speed
7.614 km/s
True Right ascension
14h 35m 04s
True Declination
0° 00' 00"
Sunlit
Object was in full shadow at epoch
Visualization orbit readout
Latitude
Unknown
Longitude
Unknown
Altitude
Unknown
Speed
Unknown
Apparent Right ascension
Unknown
Apparent Declination
Unknown
Sunlit
N/A
Visualization observer readout
Local Sidereal Time
13:37:51
Azimuth
Unknown
Elevation
Unknown
Doppler factor
Unknown
Orbital elements
Apogee altitude
494.663 km
Perigee altitude
492.564 km
Semi-major axis
6,871.75 km
Eccentricity
0.00015
Inclination
97.4216°
RAAN
218.7679°
Arg. of periapsis
102.4331°
True anomaly
257.6906°
Mean anomaly
257.7077°
Eccentric anomaly
257.69915°
Mean motion
3.81015 °/min
Orbital period
94.48 mins
BSTAR
0.00033971
Loading maneuver chart data...
Computing Atmospheric mass density...
Loading historical data...
Loading historical data...
Loading historical data...
Loading historical data...
Loading historical data...
Loading historical data...
Loading historical data...

Documentation

Showing up to 5 results
|